Location: Charlottesville
(38.0290°N, 78.4770°W)
Time: 11:53:24
(UTC-04:00)

Vanguard 3 - All Passes

Search period start: 21 October 2017 00:00
Search period end: 31 October 2017 00:00
Orbit: 510 x 3263 km, 33.3° (Epoch: 20 October)

Date Brightness Start Highest point End Pass type
(mag) Time Alt. Az. Time Alt. Az. Time Alt. Az.
21 Oct - 02:24:39 10° SSW 02:38:03 26° SSE 02:48:00 10° E visible
21 Oct - 04:37:22 10° SW 04:52:26 49° SSE 05:01:23 10° E visible
21 Oct - 06:53:43 10° WSW 07:05:50 65° S 07:12:29 10° E visible
21 Oct - 09:10:04 10° W 09:17:52 46° SSW 09:22:37 10° SE daylight
21 Oct - 11:27:11 10° SW 11:28:16 11° SW 11:29:17 10° SSW daylight
22 Oct - 01:12:04 10° S 01:22:34 18° SE 01:31:28 10° ESE visible
22 Oct - 03:21:26 10° SW 03:37:15 40° SSE 03:47:40 10° E visible
22 Oct - 05:36:49 10° WSW 05:51:23 62° S 05:59:33 10° E visible
22 Oct - 07:53:46 10° W 08:04:18 61° S 08:10:10 10° ESE daylight
22 Oct - 10:09:57 10° W 10:15:29 25° SSW 10:19:21 10° SSE daylight
23 Oct - 02:06:32 10° SSW 02:21:46 31° SSE 02:33:05 10° E visible
23 Oct - 04:20:02 10° SW 04:36:26 55° SSE 04:46:15 10° E visible
23 Oct - 06:36:56 10° W 06:50:12 67° S 06:57:25 10° E visible
23 Oct - 08:53:47 10° W 09:02:23 44° SSW 09:07:30 10° SE daylight
24 Oct - 00:53:16 10° S 01:06:09 22° SE 01:17:02 10° E visible
24 Oct - 03:03:52 10° SW 03:21:02 46° SSE 03:32:28 10° E visible
24 Oct - 05:19:47 10° WSW 05:35:32 66° S 05:44:24 10° E visible
24 Oct - 07:37:12 10° W 07:48:44 61° SSW 07:55:05 10° ESE daylight
24 Oct - 09:54:00 10° W 09:59:54 24° SW 10:03:59 10° SSE daylight
24 Oct - 23:43:35 10° SSE 23:50:38 13° SE 23:57:19 10° ESE night (unlit)
25 Oct - 01:48:42 10° SSW 02:05:20 36° SSE 02:17:54 10° E visible
25 Oct - 04:02:48 10° WSW 04:20:19 60° SSE 04:31:01 10° E visible
25 Oct - 06:20:06 10° W 06:34:27 69° S 06:42:19 10° ESE visible
25 Oct - 08:37:24 10° W 08:46:47 42° SSW 08:52:20 10° SE daylight
26 Oct - 00:35:02 10° S 00:49:35 26° SE 01:02:05 10° E visible
26 Oct - 02:46:27 10° SW 03:04:40 51° SSE 03:17:08 10° E visible
26 Oct - 05:02:46 10° WSW 05:19:34 70° S 05:29:12 10° E visible
26 Oct - 07:20:31 10° W 07:33:03 60° SSW 07:39:58 10° ESE daylight
26 Oct - 09:37:57 10° W 09:44:13 22° SW 09:48:34 10° S daylight
26 Oct - 23:23:55 10° SSE 23:34:02 16° SE 23:43:41 10° ESE night (unlit)
27 Oct - 01:31:09 10° SSW 01:48:46 41° SSE 02:02:31 10° E visible
27 Oct - 03:45:38 10° WSW 04:04:06 65° SSE 04:15:41 10° E visible
27 Oct - 06:03:13 10° W 06:18:37 70° S 06:27:09 10° ESE visible
27 Oct - 08:20:55 10° W 08:31:06 40° SSW 08:37:06 10° SE daylight
28 Oct - 00:17:14 10° SSW 00:32:53 31° SE 00:46:47 10° E visible
28 Oct - 02:29:13 10° SW 02:48:11 56° SSE 03:01:40 10° E visible
28 Oct - 04:45:45 10° WSW 05:03:30 72° S 05:13:56 10° E visible
28 Oct - 07:03:45 10° W 07:17:15 58° SSW 07:24:47 10° ESE visible
28 Oct - 09:21:50 10° W 09:28:26 21° SW 09:33:02 10° S daylight
28 Oct - 23:05:23 10° S 23:17:18 20° SE 23:28:59 10° E night (unlit)
29 Oct - 01:13:49 10° SW 01:32:04 46° SSE 01:46:57 10° E visible
29 Oct - 03:28:35 10° WSW 03:47:46 68° S 04:00:17 10° E visible
29 Oct - 05:46:17 10° W 06:02:40 70° S 06:11:56 10° ESE visible
29 Oct - 08:04:20 10° W 08:15:16 39° SSW 08:21:46 10° SSE daylight
29 Oct - 23:59:46 10° SSW 00:16:04 35° SE 00:31:12 10° E visible
30 Oct - 02:12:08 10° SW 02:31:35 61° SSE 02:46:05 10° E visible
30 Oct - 04:28:47 10° W 04:47:19 74° S 04:58:36 10° E visible
30 Oct - 06:46:55 10° W 07:01:21 56° SSW 07:09:32 10° SE visible
30 Oct - 09:05:41 10° W 09:12:31 20° SW 09:17:23 10° S daylight
30 Oct - 22:47:30 10° S 23:00:28 23° SE 23:13:43 10° E visible
